C/2017 F1 ( Lemmon )

Japanese version
Home page
Updated on January 8, 2018

---------------------------------------------------------------------

* Profile

Discovery Date March 20, 2017
Magnitude 21.7 mag
Discoverer G. J. Leonard (Mount Lemmon)

* Pictures

* Orbital Elements

Epoch 2017 Nov. 23.0 TT = JDT 2458080.5
T 2017 Nov. 30.93948 TT                                 MPCW
q   4.5000081            (2000.0)            P               Q
z  -0.0009773      Peri.   64.80721     -0.12318163     +0.97197704
 +/-0.0000073      Node   158.74201     +0.58788189     -0.09107120
e   1.0043976      Incl.  146.48057     +0.79951308     +0.21671794
From 68 observations 2017 Mar. 20-Nov. 2, mean residual 0".5.

* Magnitudes Graph

        m1 = 10.5 + 5 log d + 10.0 log r

---------------------------------------------------------------------

The orbital elements are published on M.P.E.C. 2017-X08.
The magnitudes graphs are made with Comet for Windows.

---------------------------------------------------------------------

Copyright(C) Seiichi Yoshida (comet@aerith.net). All rights reserved.